Wind_Speed
11 12 13 14 14 14 12 12 14 13 12 13 12 10 9 9 9 9 10 12 12 12 12 10 5 3 3 2 3 3 2 2 4 9 11 11 11 12 13 14 15 15 15 16 15 15 14 15 15
9 10 12 13 13 12 11 11 13 14 13 13 12 11 9 7 5 6 6 6 7 8 8 8 8 8 4 0 1 0 0 1 2 3 5 7 8 9 10 12 12 13 12 12 13 13 13 14 14
7 9 11 13 12 10 8 8 9 11 12 11 10 10 10 8 7 7 6 5 4 5 6 6 6 6 6 6 3 2 2 3 3 4 4 5 7 8 10 10 10 11 11 11 11 11 12 14 14
6 8 10 12 11 9 6 5 5 6 8 9 8 7 7 7 8 8 9 9 8 7 5 5 7 7 6 6 5 4 3 4 5 6 7 7 8 8 8 9 10 10 11 12 12 13 13 14 14
5 8 10 11 11 8 6 5 3 3 4 6 8 7 5 4 5 6 7 9 7 6 6 6 5 6 7 7 7 8 8 7 6 7 9 10 10 11 11 11 11 11 11 13 14 15 16 16 16
5 7 10 12 12 9 6 3 3 3 4 4 6 8 7 6 5 5 5 4 5 5 5 5 5 6 7 7 9 9 10 10 10 10 11 11 11 13 15 13 13 14 14 14 15 16 17 19 19
8 10 11 14 14 10 5 2 4 3 4 6 5 5 4 6 6 7 8 7 6 7 8 8 7 6 6 8 11 12 12 12 13 13 14 15 14 13 15 16 16 17 18 18 17 18 18 19 20
10 12 14 14 14 10 5 3 4 5 5 5 6 4 3 3 5 7 8 9 9 8 9 11 11 11 11 11 10 10 13 16 18 17 17 18 18 18 17 18 19 19 19 19 21 22 21 21 21
13 14 16 17 13 10 7 6 6 6 6 6 6 5 3 5 5 6 7 8 8 9 10 12 13 14 15 15 15 15 15 15 15 18 21 23 24 23 23 22 23 23 23 23 22 22 21 23 24
15 17 18 18 13 10 10 11 10 9 8 8 8 8 8 9 9 10 10 10 11 12 12 13 14 15 17 18 19 19 19 20 21 20 19 19 22 26 28 28 29 28 28 27 28 26 26 25 25
18 19 19 16 14 13 13 13 12 11 11 12 10 11 11 11 12 13 13 13 13 14 15 15 15 14 15 18 19 21 21 22 22 23 24 25 25 25 26 27 29 31 33 33 33 33 31 30 30
20 20 19 16 16 16 17 15 14 13 14 13 14 13 13 14 14 14 13 11 13 13 15 16 16 16 17 17 18 19 21 22 24 26 27 28 28 29 30 31 30 30 31 34 35 37 36 36 36
22 21 20 20 20 19 19 16 15 15 15 16 14 15 15 15 15 15 15 17 16 15 15 15 16 18 19 20 20 20 22 23 24 26 28 30 32 34 35 36 36 36 36 34 33 35 37 39 39
23 23 22 22 22 21 20 18 17 17 17 17 17 17 16 17 17 17 18 20 20 18 16 16 16 17 18 20 21 22 23 23 23 25 27 29 31 34 36 38 40 41 42 41 41 40 37 38 39
25 24 24 24 24 22 21 20 21 20 20 19 19 19 19 20 20 20 22 21 20 18 17 16 16 16 16 17 19 21 22 24 26 28 29 31 33 35 37 40 42 43 45 46 46 47 47 46 44
28 26 26 25 24 25 23 23 22 22 22 22 22 22 23 24 24 24 23 20 19 20 20 20 19 19 19 20 19 21 23 25 27 30 31 33 35 38 40 43 44 45 46 48 49 50 51 51 52
30 28 26 25 26 26 24 23 24 25 25 25 26 26 26 26 26 24 22 22 22 22 22 23 22 22 22 22 25 25 27 29 31 33 36 38 39 41 43 44 46 48 50 51 52 53 53 54 54
31 28 26 25 28 28 27 27 27 28 28 29 29 27 26 24 23 23 25 26 25 25 23 23 26 27 29 28 29 31 31 32 33 35 37 39 41 44 47 48 50 51 52 54 55 55 56 57 58
31 29 27 27 32 32 32 31 29 30 30 31 29 25 25 24 24 25 27 28 29 30 28 26 28 29 31 32 32 33 35 36 37 39 40 43 45 47 49 51 53 55 56 56 58 59 59 60 61
30 32 29 30 34 35 35 32 32 33 32 31 29 27 26 27 28 28 28 28 29 29 30 30 31 31 32 36 38 37 38 39 41 43 46 49 50 52 55 57 58 60 61 62 62 63 64 65 65
34 35 33 35 36 38 37 37 34 34 32 31 31 30 30 30 30 29 28 28 29 31 33 34 36 38 39 40 41 43 45 47 48 50 53 54 56 58 59 61 63 64 65 66 67 66 66 67 67
38 35 37 39 41 41 39 43 32 32 32 31 31 32 32 31 31 31 31 31 32 32 34 39 42 42 44 45 47 50 51 52 54 57 59 60 62 63 65 66 67 67 67 68 68 68 69 69 70
41 39 42 42 43 45 43 41 38 32 32 33 33 33 34 34 31 29 31 31 31 35 40 43 45 46 49 49 53 54 56 56 58 59 61 63 65 66 68 70 71 72 72 71 71 71 70 71 71
45 43 41 43 45 48 39 39 44 32 32 33 34 34 33 33 32 31 31 32 35 40 45 47 50 50 51 55 56 59 59 59 59 63 64 66 66 67 69 70 71 72 74 74 74 75 75 76 77
43 43 45 46 47 45 42 42 42 39 34 32 34 35 34 32 31 31 33 37 42 44 47 50 52 55 56 58 59 60 61 62 63 65 66 67 68 70 72 74 75 76 78 80 80 81 83 83 84
45 46 46 46 45 44 45 46 42 39 39 36 37 35 32 31 33 36 40 42 45 48 50 51 55 59 60 61 61 61 63 65 66 67 68 69 71 73 75 77 78 81 81 82 84 85 85 86 86
46 46 39 43 46 47 47 45 43 42 41 41 38 36 34 36 38 41 45 47 49 50 53 58 60 59 60 62 62 63 66 66 68 69 72 77 79 81 81 81 82 83 83 85 85 85 83 83 84
48 43 44 46 46 46 47 47 47 45 44 43 40 39 38 39 43 46 49 50 52 55 58 61 62 61 62 63 64 65 67 69 70 73 76 79 82 82 82 81 81 81 80 79 79 80 80 80 81
44 46 45 45 46 47 48 47 48 49 47 45 43 41 43 47 49 50 52 53 54 56 60 62 63 61 62 65 67 68 70 73 75 78 80 82 82 80 79 79 79 79 79 79 79 80 81 82 83
47 48 48 50 47 46 48 49 52 51 50 48 47 47 49 52 54 54 56 56 55 58 61 62 62 63 65 67 70 73 75 78 80 81 80 80 80 79 78 78 78 78 79 80 82 83 84 84 84
Wind_Direction
60 51 47 42 44 42 56 61 53 48 48 51 53 55 60 64 65 60 57 60 60 60 56 57 68 78 72 79 89 97 114 131 216 235 246 250 250 249 250 248 249 247 250 251 257 261 259 262 263
53 43 41 37 36 42 47 54 50 53 57 56 57 54 56 57 65 73 65 62 57 57 60 57 48 49 50 82 50 54 72 232 227 211 219 226 234 242 244 245 245 249 251 255 257 260 266 273 267
50 41 35 30 28 27 45 53 49 46 55 55 55 51 49 46 41 36 40 42 42 31 25 28 34 37 39 40 25 285 271 267 267 265 259 240 235 233 236 241 243 242 243 246 248 252 257 260 260
52 35 27 21 13 14 20 50 57 48 45 43 36 35 40 32 32 34 30 27 20 11 1 355 349 347 348 351 350 351 333 271 264 272 277 274 269 266 262 258 252 251 249 246 246 245 248 255 259
31 15 6 4 358 358 358 28 20 32 27 21 12 4 357 10 13 16 23 26 27 24 12 357 342 331 324 323 321 320 320 320 314 289 270 270 275 276 273 274 278 276 270 265 260 253 251 250 252
346 348 346 346 346 341 341 13 333 331 347 354 350 350 336 329 336 342 350 359 357 359 357 349 343 333 321 309 305 302 301 301 301 301 303 299 288 284 281 280 278 275 275 274 271 266 261 260 258
327 329 332 337 340 334 316 315 306 331 343 342 350 331 320 322 327 327 324 324 323 321 318 317 323 323 319 317 307 297 291 288 287 288 289 291 291 293 295 295 288 280 276 275 272 271 271 269 266
312 314 319 326 332 326 307 288 307 305 324 325 329 319 257 281 310 309 309 314 314 303 298 300 302 301 301 303 299 301 299 295 290 284 280 280 282 282 280 285 288 286 285 280 275 272 271 271 271
301 307 310 314 319 312 301 285 286 283 287 298 307 306 257 240 268 278 285 288 292 296 297 296 295 296 297 297 295 295 295 295 297 298 296 290 285 282 281 277 276 279 281 282 281 280 278 274 272
296 302 305 306 303 289 294 288 285 281 281 281 293 295 279 269 272 262 260 267 277 277 278 286 294 295 293 292 294 294 296 297 296 297 295 296 297 296 290 284 280 277 274 273 274 274 275 277 276
291 300 302 298 294 286 292 283 280 279 276 276 284 288 287 279 276 274 270 277 288 293 290 283 285 288 294 295 296 297 299 298 298 296 296 295 294 291 293 296 294 287 281 277 275 273 270 269 270
291 297 294 288 287 282 286 284 281 278 279 284 288 287 282 277 281 283 277 284 293 294 290 289 285 285 291 293 292 293 297 298 300 299 297 294 291 290 288 287 285 285 288 289 285 278 274 272 272
290 293 287 284 286 283 280 279 277 281 283 284 283 281 281 277 275 273 273 280 288 284 282 280 279 284 288 290 292 293 293 293 292 292 293 293 291 291 289 289 287 285 283 280 279 284 286 283 277
289 289 281 280 282 281 280 281 279 278 279 281 281 281 279 278 278 280 283 286 289 284 275 270 265 263 270 280 283 286 286 286 289 291 292 293 292 291 290 287 286 285 284 282 280 275 272 275 277
283 281 276 277 279 277 276 277 276 277 277 278 279 280 280 280 282 286 285 284 280 276 272 267 263 264 268 271 278 283 286 288 287 286 286 286 287 289 288 286 285 284 282 280 278 278 279 276 270
278 273 271 276 274 272 273 274 274 275 278 283 285 285 285 284 284 283 282 281 280 272 266 266 265 264 268 271 279 284 285 285 285 286 285 285 288 287 286 286 284 283 282 280 278 277 277 277 276
273 268 268 266 267 268 268 271 273 276 280 284 284 284 285 286 284 283 284 290 293 294 287 282 278 279 277 278 280 281 283 287 288 290 291 292 290 288 287 284 283 283 282 281 280 279 277 276 275
267 271 264 264 265 264 266 271 275 278 281 282 282 279 279 280 279 282 286 286 287 283 282 284 286 285 286 283 283 282 283 283 284 285 288 291 291 290 289 287 286 283 281 279 278 277 277 278 277
267 263 262 263 264 263 266 271 272 274 277 275 272 273 274 272 275 282 284 284 283 281 281 281 282 284 285 286 285 283 286 288 290 292 291 292 291 288 285 283 282 281 280 276 276 275 274 273 273
263 266 265 258 258 263 266 271 273 273 273 269 266 266 265 268 272 275 277 276 277 275 277 277 276 275 275 277 279 280 282 284 285 285 285 283 284 282 281 280 279 278 276 276 275 275 273 272 271
262 264 263 260 258 263 268 269 273 270 266 263 263 263 267 273 278 275 271 271 272 272 273 278 284 285 284 283 279 280 283 282 281 280 279 279 279 279 279 279 279 278 277 277 275 274 274 273 272
261 261 263 265 266 267 265 272 269 267 265 265 265 267 270 272 272 273 275 276 273 273 279 285 284 285 285 283 282 282 278 277 278 279 279 279 279 279 278 278 277 276 276 275 274 274 274 275 275
261 261 265 267 266 267 268 271 270 263 266 267 267 268 273 276 274 274 278 278 276 276 281 285 288 290 285 284 282 280 281 282 282 281 280 279 278 277 276 277 277 277 277 275 274 274 273 274 274
263 264 268 266 265 264 267 268 269 269 266 268 270 274 276 274 273 276 276 278 283 285 285 288 288 289 288 282 280 279 280 281 281 282 281 280 279 279 278 277 277 277 277 278 279 279 279 279 279
264 267 268 265 263 268 268 264 269 272 272 269 271 273 274 273 273 276 276 278 280 282 286 290 294 294 290 287 283 283 285 287 287 286 284 284 282 281 281 280 280 280 280 280 281 282 283 283 284
264 261 261 263 266 266 265 267 270 272 277 276 273 273 271 272 274 273 276 278 281 285 287 290 294 294 292 290 290 290 290 290 289 288 287 285 284 284 283 283 283 283 284 285 285 286 287 287 288
263 263 264 263 263 266 269 271 274 277 278 278 280 278 275 276 277 277 279 284 290 293 296 297 293 291 290 292 291 291 291 291 289 288 287 285 285 285 287 288 288 289 290 290 290 290 290 289 288
258 259 257 260 264 269 270 273 277 279 278 281 281 278 277 277 277 279 283 288 291 294 298 298 296 296 295 292 292 291 291 290 290 289 288 287 286 287 288 289 290 290 290 290 289 288 287 286 285
258 257 259 261 262 267 272 279 280 278 278 282 286 282 281 280 281 284 286 288 291 296 297 297 295 294 293 293 293 293 292 291 291 289 287 287 288 289 289 290 291 290 290 290 290 290 290 290 289
247 251 253 257 265 270 272 272 276 279 280 288 288 283 280 281 283 284 286 290 291 292 294 295 293 294 295 294 295 295 293 291 289 289 289 289 291 292 293 293 292 292 292 293 293 292 291 290 290
Height
5889 5889 5889 5888 5890 5887 5886 5886 5885 5884 5884 5883 5882 5882 5881 5880 5880 5881 5878 5878 5877 5877 5877 5877 5877 5877 5877 5877 5876 5876 5875 5875 5874 5875 5875 5876 5876 5877 5877 5877 5878 5878 5878 5878 5879 5878 5877 5878 5877
5890 5890 5890 5888 5889 5887 5887 5886 5886 5885 5884 5884 5883 5882 5881 5880 5879 5879 5878 5877 5877 5877 5877 5876 5876 5877 5877 5877 5877 5877 5877 5877 5876 5875 5875 5875 5875 5875 5875 5875 5876 5875 5875 5876 5876 5876 5876 5876 5876
5890 5890 5890 5889 5888 5888 5888 5887 5886 5885 5885 5884 5883 5882 5881 5881 5880 5879 5879 5878 5877 5877 5877 5877 5877 5877 5877 5877 5877 5877 5877 5877 5877 5876 5876 5875 5875 5875 5874 5874 5874 5874 5874 5873 5872 5872 5872 5873 5874
5890 5891 5890 5889 5888 5888 5887 5887 5886 5885 5885 5884 5882 5882 5881 5880 5880 5880 5879 5879 5879 5878 5878 5878 5878 5877 5877 5877 5876 5876 5876 5876 5876 5875 5875 5875 5875 5875 5874 5874 5873 5872 5871 5871 5871 5870 5870 5870 5870
5891 5890 5889 5889 5888 5887 5887 5887 5886 5885 5885 5884 5882 5881 5880 5880 5880 5879 5879 5879 5878 5878 5878 5877 5877 5877 5877 5876 5876 5876 5875 5875 5874 5874 5874 5874 5873 5873 5873 5872 5871 5871 5870 5870 5870 5869 5868 5868 5868
5890 5890 5889 5888 5887 5886 5885 5885 5885 5884 5884 5884 5883 5881 5880 5879 5878 5878 5878 5878 5878 5877 5877 5877 5877 5876 5876 5875 5874 5874 5874 5873 5873 5873 5872 5872 5872 5871 5870 5870 5870 5869 5869 5869 5868 5868 5867 5867 5867
5889 5889 5888 5886 5886 5885 5884 5884 5883 5883 5882 5882 5881 5880 5879 5878 5877 5877 5876 5876 5876 5876 5875 5875 5874 5874 5874 5874 5874 5873 5872 5871 5871 5871 5870 5870 5870 5869 5868 5868 5868 5867 5867 5867 5867 5867 5866 5865 5865
5888 5887 5885 5885 5884 5884 5883 5882 5882 5882 5881 5880 5879 5879 5878 5877 5876 5876 5875 5874 5874 5874 5873 5873 5872 5872 5872 5871 5871 5871 5870 5870 5869 5868 5867 5867 5866 5866 5866 5865 5864 5864 5865 5864 5864 5863 5863 5862 5861
5886 5886 5884 5882 5883 5881 5881 5881 5880 5880 5879 5878 5877 5877 5876 5875 5875 5874 5873 5872 5872 5871 5871 5870 5869 5869 5869 5869 5868 5868 5867 5868 5867 5866 5866 5865 5864 5863 5862 5862 5861 5860 5860 5860 5860 5859 5858 5858 5857
5883 5883 5881 5880 5880 5879 5878 5877 5877 5878 5877 5876 5875 5875 5874 5873 5872 5872 5871 5870 5869 5869 5869 5868 5867 5866 5866 5866 5865 5865 5865 5865 5864 5864 5863 5863 5862 5861 5860 5859 5857 5856 5855 5854 5853 5854 5854 5853 5852
5880 5879 5878 5877 5877 5876 5875 5874 5874 5874 5874 5873 5874 5873 5872 5871 5870 5869 5868 5867 5867 5866 5866 5866 5865 5865 5864 5863 5863 5862 5861 5861 5860 5859 5859 5859 5858 5857 5856 5855 5855 5853 5851 5850 5848 5847 5847 5846 5845
5876 5875 5874 5873 5873 5872 5871 5871 5870 5870 5870 5870 5869 5869 5869 5868 5866 5866 5865 5865 5864 5863 5863 5862 5861 5861 5861 5860 5860 5859 5859 5858 5857 5856 5855 5854 5852 5851 5850 5849 5848 5848 5848 5847 5845 5843 5841 5840 5838
5872 5871 5870 5869 5869 5868 5867 5867 5867 5867 5866 5866 5866 5865 5864 5863 5863 5862 5861 5861 5861 5860 5859 5858 5857 5856 5855 5855 5854 5855 5854 5854 5853 5852 5850 5849 5848 5846 5844 5843 5841 5840 5839 5839 5838 5838 5837 5835 5834
5867 5866 5865 5865 5864 5864 5863 5862 5862 5863 5862 5862 5861 5860 5860 5859 5859 5858 5858 5857 5857 5856 5855 5853 5852 5851 5851 5851 5850 5849 5849 5848 5847 5846 5845 5844 5843 5841 5838 5836 5835 5833 5832 5831 5830 5828 5827 5826 5825
5862 5861 5860 5860 5859 5858 5857 5857 5857 5857 5857 5857 5856 5856 5855 5855 5854 5853 5853 5852 5850 5849 5848 5847 5846 5846 5845 5844 5845 5845 5844 5843 5843 5841 5840 5838 5836 5834 5833 5830 5828 5825 5823 5822 5821 5819 5818 5818 5815
5855 5856 5855 5854 5853 5852 5853 5852 5851 5851 5851 5850 5850 5851 5850 5850 5849 5848 5847 5846 5846 5844 5843 5841 5839 5838 5838 5837 5836 5836 5835 5834 5833 5832 5831 5830 5828 5827 5825 5823 5820 5818 5816 5813 5811 5809 5808 5807 5806
5849 5849 5849 5848 5847 5846 5847 5846 5845 5845 5845 5844 5844 5843 5843 5843 5843 5842 5842 5841 5840 5840 5839 5837 5836 5835 5832 5831 5831 5829 5828 5828 5827 5826 5825 5823 5822 5819 5816 5814 5812 5810 5807 5805 5802 5800 5797 5795 5794
5841 5842 5843 5842 5841 5840 5840 5841 5839 5838 5838 5837 5837 5836 5836 5836 5835 5834 5834 5833 5833 5832 5831 5830 5830 5829 5827 5824 5823 5821 5820 5818 5816 5815 5815 5813 5811 5810 5809 5806 5803 5800 5797 5794 5791 5788 5787 5785 5783
5834 5835 5836 5836 5832 5832 5833 5834 5834 5833 5832 5831 5830 5830 5829 5828 5828 5827 5827 5826 5826 5825 5824 5822 5821 5819 5819 5817 5816 5814 5812 5810 5807 5806 5804 5801 5799 5797 5795 5792 5790 5788 5785 5782 5779 5776 5772 5770 5769
5827 5827 5829 5828 5825 5823 5824 5826 5826 5826 5825 5825 5824 5824 5822 5821 5820 5820 5820 5820 5819 5819 5818 5816 5813 5810 5808 5807 5806 5804 5802 5799 5797 5795 5792 5789 5785 5783 5781 5778 5775 5772 5769 5767 5763 5761 5759 5756 5754
5818 5818 5820 5818 5817 5814 5815 5816 5819 5817 5817 5816 5816 5816 5815 5815 5815 5814 5812 5811 5811 5810 5810 5809 5809 5808 5806 5803 5799 5796 5794 5790 5786 5782 5779 5775 5771 5768 5765 5762 5760 5757 5754 5751 5749 5746 5742 5740 5738
5807 5810 5809 5808 5807 5805 5807 5803 5810 5810 5809 5809 5809 5808 5807 5805 5804 5804 5804 5804 5802 5802 5802 5800 5798 5796 5794 5793 5791 5789 5783 5779 5775 5772 5768 5764 5760 5756 5752 5748 5745 5741 5737 5735 5732 5729 5726 5724 5721
5798 5800 5799 5798 5796 5794 5795 5797 5797 5801 5802 5801 5800 5799 5798 5797 5796 5795 5795 5795 5794 5793 5792 5790 5788 5786 5783 5779 5777 5774 5771 5768 5764 5759 5755 5751 5746 5741 5736 5732 5727 5724 5721 5717 5714 5711 5708 5706 5704
5788 5789 5789 5787 5785 5781 5788 5788 5784 5793 5793 5792 5791 5790 5789 5788 5787 5786 5786 5785 5784 5783 5781 5778 5778 5775 5772 5767 5763 5761 5758 5754 5750 5746 5740 5735 5731 5726 5720 5715 5711 5708 5703 5699 5695 5692 5690 5688 5685
5780 5780 5777 5775 5773 5775 5777 5777 5777 5778 5782 5783 5782 5780 5779 5778 5777 5777 5776 5774 5773 5771 5769 5767 5764 5761 5757 5755 5751 5748 5743 5739 5733 5729 5725 5720 5716 5711 5706 5700 5694 5690 5686 5681 5677 5673 5670 5666 5663
5767 5767 5767 5764 5765 5766 5765 5763 5768 5771 5771 5771 5771 5771 5771 5771 5769 5768 5766 5764 5762 5760 5758 5754 5749 5745 5741 5738 5734 5730 5727 5722 5717 5712 5708 5702 5697 5692 5687 5682 5677 5672 5666 5662 5657 5652 5649 5645 5641
5756 5755 5761 5756 5754 5753 5754 5756 5758 5760 5761 5760 5760 5761 5761 5760 5758 5755 5752 5749 5746 5743 5740 5738 5735 5730 5726 5723 5719 5715 5711 5707 5701 5696 5689 5684 5679 5673 5666 5661 5656 5650 5645 5640 5635 5630 5626 5622 5618
5744 5749 5746 5745 5745 5745 5744 5745 5747 5749 5748 5748 5749 5748 5747 5745 5742 5740 5737 5734 5731 5728 5725 5722 5720 5716 5712 5708 5703 5699 5695 5688 5683 5677 5671 5665 5659 5653 5647 5642 5636 5630 5625 5620 5615 5611 5606 5600 5596
5734 5733 5735 5736 5735 5735 5735 5735 5735 5735 5736 5737 5736 5735 5733 5730 5727 5724 5721 5718 5716 5713 5710 5708 5706 5700 5696 5692 5687 5682 5675 5669 5662 5657 5651 5646 5639 5633 5627 5622 5616 5610 5604 5599 5593 5587 5582 5576 5571
5719 5720 5722 5722 5727 5728 5725 5724 5722 5721 5722 5724 5722 5720 5718 5716 5714 5710 5706 5704 5702 5697 5694 5692 5688 5684 5679 5676 5669 5662 5655 5648 5641 5635 5629 5623 5618 5612 5607 5601 5594 5588 5582 5576 5570 5564 5558 5553 5547